Regional Weather Roundup
Issued by NWS

Home | Current Version | Previous Version | Graphics & Text | Print | Product List | Glossary On
Versions: 1 2 3 4 5 6 7 8 9 10 11 12 13 14 15 16 17 18 19 20 21 22 23 24 25 26 27 28 29 30 31 32 33 34 35 36 37 38 39 40 41 42 43 44 45 46 47 48 49 50
000
ASUS45 KCYS 211610
RWRWY

WYOMING REGIONAL WEATHER ROUNDUP
NATIONAL WEATHER SERVICE CHEYENNE WY
1000 AM MDT SUN SEP 21 2014

NOTE:  "FAIR" INDICATES FEW OR NO CLOUDS BELOW 12,000 FEET
WITH NO SIGNIFICANT WEATHER AND/OR OBSTRUCTIONS TO VISIBILITY.

WYZ001-211700-
YELLOWSTONE NATIONAL PARK

CITY           SKY/WX    TMP DP  RH WIND       PRES   REMARKS
LK YELLOWSTONE   N/A     53  40  61 CALM      30.43S
W YELLOWSTONE  NOT AVBL

$$
WYZ002>013-054>058-071-098>099-211700-
NORTHERN WYOMING

CITY           SKY/WX    TMP DP  RH WIND       PRES   REMARKS
JACKSON        SUNNY     57  43  58 CALM      30.35S
CODY             N/A    N/A N/A N/A MISG        N/A
GREYBULL       SUNNY     59  43  55 SW3       30.29F
WORLAND        SUNNY     59  44  57 W3        30.30S
SHERIDAN       SUNNY     56  42  59 CALM      30.31F
BUFFALO        SUNNY     64  40  41 SE14      30.34S
GILLETTE       SUNNY     63  41  44 S9        30.35S
HULETT         FAIR      59  37  44 MISG      30.37
NEWCASTLE      FAIR      63  34  34 S9        30.39

$$
WYZ014>020-022>026-101>103-211700-
CENTRAL WYOMING

CITY           SKY/WX    TMP DP  RH WIND       PRES   REMARKS
BIG PINEY      MOSUNNY   53  39  59 S5        30.40R
PINEDALE       MOSUNNY   59  39  47 W5        30.40R
DUBOIS         FAIR      52  36  54 CALM      30.43S
LANDER         SUNNY     61  37  41 N10       30.35F
RIVERTON       SUNNY     59  35  40 CALM      30.36F
CASPER         SUNNY     58  35  42 VRB3      30.36S
DOUGLAS        SUNNY     63  39  41 SE23      30.37F

$$
WYZ021-027>030-104>119-211700-
SOUTHERN WYOMING

CITY           SKY/WX    TMP DP  RH WIND       PRES   REMARKS
EVANSTON       LGT RAIN  53  42  66 E8        30.37R
KEMMERER       CLOUDY    55  37  50 NE6       30.40R
FORT BRIDGER   PTSUNNY   54  41  61 CALM      30.40R
ROCK SPRINGS   CLOUDY    56  36  47 E13       30.37S
DIXON          PTSUNNY   55  44  65 CALM      30.39R
RAWLINS        SUNNY     59  38  45 NE8       30.38S
SARATOGA       FAIR      55  43  62 CALM      30.39S
LARAMIE        SUNNY     57  40  52 SE22      30.41F
CHEYENNE       SUNNY     61  36  39 S17G24    30.42S
TORRINGTON     SUNNY     64  39  39 SE9       30.38S
PINE BLUFFS    CLOUDY    61  36  39 SE12      30.42R

$$



USA.gov is the U.S. government's official web portal to all federal, state and local government web resources and services.